User: anonymous   Login
Location: Unspecified
(0.0000°N, 0.0000°E)
Time: 22:33:59
(UTC+00:00)
Language:

Meteor 2-4 - Orbit

View from above orbital plane
View from above orbital plane
View from above satellite
View from above satellite

Ground track
Ground track

The orbit data is extracted from the following two-line orbital elements,

1 11288U 79021A   18202.78186239  .00000168  00000-0  84822-4 0  9999
2 11288  81.2163  86.4343 0023192 204.6033 155.4034 14.11842692 27825
Epoch (UTC): 21 July 2018 18:45:52
Eccentricity: 0.0023192
inclination: 81.2163°
perigee height: 836 km
apogee height: 870 km
right ascension of ascending node: 86.4343°
argument of perigee: 204.6033°
revolutions per day: 14.11842692
mean anomaly at epoch: 155.4034°
orbit number at epoch: 2782

The dashed part of the orbit path shows where the satellite is in the earth's shadow,  

DLR